カタログに戻る

COSMOS 1823 DEB

運用中LEO
NORAD 39805·DEBRIS·🇷🇺 Russia

打ち上げ Feb 20, 1987 から Plesetsk Cosmodrome

Loading…

次のパス (今後24時間)

TLE

経年Source: Space-Track

元期: Sep 9, 2026, 10:28 UTC

1 39805U 87020ED  26252.43639380 -.00000015  00000-0  17667-4 0  9993
2 39805  73.5942 236.8863 0021327 103.8017  51.6140 12.42658610556624

AllMySatでCOSMOS 1823 DEBをリアルタイム追跡

Download on the App Store